Torna al catalogo

TITAN 3C TRANSTAGE DEB

AttivoLEO
NORAD 1680·DEBRIS·🇺🇸 United States

Lanciato Oct 15, 1965 da Cape Canaveral Space Force Station

Loading…

Prossimi Passaggi (prossime 24 ore)

TLE

AggiornatoSource: Space-Track

Epoca: Sep 14, 2026, 14:07 UTC

1 01680U 65082AT  26257.58823920  .00000289  00000-0  45529-4 0  9993
2 01680  32.2570 354.3466 0020671 320.4060  39.5079 14.65781433226788

Traccia TITAN 3C TRANSTAGE DEB in tempo reale con AllMySat

Download on the App Store